Home > Weather > Gdańsk > Past weeks

Flag for Poland Past Weather in Gdańsk, Poland — Yesterday and Last 2 Weeks

Now
72 °F

Passing clouds.


Feels Like: 75 °F
Forecast: 59 / 75 °F
Wind: 6 mph from South

Location: Gdansk-Rebiechowo

Current Time: Jun 29, 2016 at 6:38:37 PM

Latest Report: Jun 29, 2016 at 6:00 PM


Visibility: N/A

Pressure: 29.86 "Hg

Humidity: 65%

Dew Point: 59 °F

Location of GdańskLocation

Past Weather in Gdańsk — Graph

°F

Gdańsk Temperature Yesterday

Maximum temperature yesterday: 73 °F (at 12:30 PM)
Minimum temperature yesterday: 59 °F (at 4:00 AM)
Average temperature yesterday: 65 °F

High & Low Weather Summary for the Past Weeks

 TemperatureHumidityPressure
High88 °F (Jun 24, 3:30 PM)100% (Jun 16, 4:30 AM)30.30 "Hg (Jun 16, 4:30 AM)
Low52 °F (Jun 15, 5:30 AM)41% (Jun 28, 12:30 PM)29.30 "Hg (Jun 17, 5:00 PM)
Average65 °F75%29.94 "Hg
* Reported Jun 14 5:00 PM — Jun 29 5:30 PM, Gdańsk, Weather by CustomWeather, © 2016

Note: Actual official high and low records may vary slightly from our data, if they occured in-between our weather recording intervals... More about our weather records

Advertising

Gdańsk Weather History for the Previous 24 Hours

Scroll right to see more
 ConditionsComfort  
Time TempWeatherWind HumidityBarometerVisibility
5:30 PM
Wed, Jun 29
70 °FPassing clouds.6 mph69%29.86 "HgN/A
5:00 PM68 °FScattered clouds.8 mph73%29.86 "HgN/A
4:30 PM68 °FPartly sunny.7 mph69%29.86 "HgN/A
4:00 PM68 °FPartly sunny.8 mph69%29.89 "HgN/A
3:30 PM70 °FPartly sunny.9 mph64%29.89 "HgN/A
3:00 PM70 °FScattered clouds.9 mph64%29.89 "HgN/A
2:30 PM70 °FScattered clouds.9 mph64%29.89 "HgN/A
2:00 PM70 °FScattered clouds.10 mph64%29.89 "HgN/A
1:30 PM68 °FScattered clouds.7 mph69%29.92 "HgN/A
1:00 PM68 °FSprinkles. Partly sunny.5 mph64%29.92 "HgN/A
12:30 PM68 °FSprinkles. Partly sunny.7 mph64%29.92 "HgN/A
12:00 PM68 °FPassing clouds.7 mph60%29.92 "HgN/A
11:30 AM68 °FPassing clouds.8 mph64%29.92 "HgN/A
11:00 AM68 °FPassing clouds.7 mph64%29.95 "HgN/A
10:30 AM66 °FPassing clouds.7 mph68%29.95 "HgN/A
10:00 AM64 °FPassing clouds.6 mph68%29.95 "HgN/A
9:30 AM64 °FPassing clouds.6 mph73%29.95 "HgN/A
9:00 AM63 °FPassing clouds.3 mph73%29.95 "HgN/A
8:30 AM63 °FPassing clouds.5 mph77%29.95 "HgN/A
8:00 AM61 °FPassing clouds.5 mph77%29.95 "HgN/A
7:30 AM61 °FPassing clouds.5 mph68%29.95 "HgN/A
7:00 AM63 °FPassing clouds.1 mph73%29.95 "HgN/A
6:30 AM61 °FScattered clouds.1 mph77%29.98 "HgN/A
6:00 AM57 °FScattered clouds.2 mph88%29.98 "HgN/A
5:30 AM55 °FPartly sunny.2 mph94%29.98 "HgN/A
5:00 AM55 °FPassing clouds.3 mph94%29.98 "HgN/A
4:30 AM55 °FPassing clouds.3 mph94%29.98 "HgN/A
4:00 AM55 °FPassing clouds.5 mph88%29.98 "HgN/A
3:30 AM55 °FPassing clouds.3 mph94%29.98 "HgN/A
3:00 AM55 °FPassing clouds.3 mph94%29.98 "HgN/A
2:30 AM55 °FPassing clouds.5 mph94%29.98 "HgN/A
2:00 AM55 °FPassing clouds.5 mph94%30.01 "HgN/A
1:30 AM55 °FPassing clouds.5 mph100%29.98 "HgN/A
1:00 AM57 °FPassing clouds.6 mph94%30.01 "HgN/A
12:30 AM57 °FClear.2 mph94%30.01 "Hg10 mi
12:00 AM59 °FPassing clouds.3 mph88%30.01 "HgN/A
11:30 PM
Tue, Jun 28
59 °FPassing clouds.3 mph88%30.01 "HgN/A
11:00 PM59 °FClear.2 mph88%30.01 "Hg10 mi
10:30 PM59 °FPassing clouds.3 mph88%30.01 "HgN/A
10:00 PM61 °FSunny.6 mph83%30.01 "Hg10 mi
9:30 PM61 °FSunny.8 mph83%30.01 "Hg10 mi
9:00 PM61 °FSunny.10 mph83%30.01 "Hg10 mi
8:30 PM63 °FPassing clouds.13 mph83%30.01 "HgN/A
8:00 PM63 °FSunny.12 mph77%29.98 "Hg10 mi
7:30 PM64 °FSunny.7 mph73%29.98 "Hg10 mi
7:00 PM64 °FSunny.7 mph78%29.98 "Hg10 mi
6:30 PM64 °FSunny.7 mph78%29.98 "Hg10 mi
6:00 PM64 °FPassing clouds.9 mph78%29.98 "HgN/A
Weather by CustomWeather, © 2016

See weather overviewHow to use our weather pages